Regional Weather Roundup
Issued by NWS Charleston, SC

Current Version | Previous Version | Text Only | Print | Product List | Glossary Off
Versions: 1 2 3 4 5 6 7 8 9 10 11 12 13 14 15 16 17 18 19 20 21 22 23 24 25 26 27 28 29 30 31 32 33 34 35 36 37 38 39 40 41 42 43 44 45 46 47 48 49 50
000 ASUS42 KCHS 221312 RWRCHS REGIONAL WEATHER ROUNDUP NATIONAL WEATHER SERVICE CHARLESTON SC 900 AM EDT TUE AUG 22 2017 NOTE: "FAIR" INDICATES FEW OR NO CLOUDS BELOW 12,000 FEET WITH NO SIGNIFICANT WEATHER AND/OR OBSTRUCTIONS TO VISIBILITY. NOT ALL STATIONS ARE QUALITY CONTROLLED. USE DATA WITH CAUTION... ESPECIALLY DEWPOINT OBSERVATIONS. SCZ027-030-031-034>040-042>050-221400- ...SOUTHEAST SOUTH CAROLINA... CITY SKY/WX TMP DP RH WIND PRES REMARKS N CHARLESTON MOSUNNY 82 76 81 CALM 30.11R WATERFRONT PRK N/A 84 79 85 CALM 29.94S HX 96 JOHNS ISLAND FAIR 84 77 79 CALM 30.11R HX 94 PINOPOLIS N/A 79 79 100 VRB2 30.05R MONCKS CORNER CLOUDY 77 75 94 CALM 30.12R SUMMERVILLE N/A 77 75 94 CALM 30.12 BEAUFORT MCAS PTSUNNY 80 78 94 CALM 30.12R BEAUFORT ARPT FAIR 79 77 94 W3 30.11R HILTON HEAD IS NOT AVBL WALTERBORO CLOUDY 77 73 88 CALM 30.13R ALLENDALE NOT AVBL ...SOUTHERN MIDLANDS AND PEE DEE... CITY SKY/WX TMP DP RH WIND PRES REMARKS GEORGETOWN FAIR 81 79 94 CALM 30.12S KINGSTREE FOG 77 73 88 CALM 30.12R VSB 1 ORANGEBURG SUNNY 81 70 69 CALM 30.13R BARNWELL FAIR 79 75 89 CALM 30.13S AIKEN FAIR 77 73 88 CALM 30.17R MANNING FAIR 79 72 78 NE7 30.12S COLUMBIA MOSUNNY 79 72 79 CALM 30.12R SUMTER MOSUNNY 80 71 75 CALM 30.10S FLORENCE MOSUNNY 80 76 87 CALM 30.12S MYRTLE BEACH MOSUNNY 81 77 89 CALM 30.12S N MYRTLE BEACH SUNNY 82 77 84 N3 30.11S HX 90 $$ GAZ063-065-086>088-099>101-113>116-118-119-134>141-150-221400- ...SOUTHEAST GEORGIA... CITY SKY/WX TMP DP RH WIND PRES REMARKS SAVANNAH ARPT PTSUNNY 78 75 90 NW3 30.13R HUNTER AAF PTSUNNY 80 75 83 CALM 30.10R FORT STEWART MOSUNNY 77 75 95 CALM 30.10S STATESBORO MOSUNNY 80 72 76 CALM 30.13R SYLVANIA N/A 77 76 99 CALM 30.14R CLAXTON FAIR 79 76 93 CALM 30.13R ...CSRA...CENTRAL AND FAR SOUTHEAST GEORGIA... CITY SKY/WX TMP DP RH WIND PRES REMARKS THOMSON CLOUDY 75 73 93 W3 30.19R AUGUSTA-BUSH FOG 76 75 97 CALM 30.13R VSB 1/2 AUGUSTA-DANIEL FOG 75 72 90 CALM 30.14R VSB 1/4 SWAINSBORO FAIR 79 77 94 CALM 30.15R VIDALIA SUNNY 79 77 94 CALM 30.14R EASTMAN PTSUNNY 77 77 100 CALM 30.16R HAZLEHURST FAIR 81 71 71 CALM 30.12R ALMA MOSUNNY 80 75 84 SE3 30.13R WAYCROSS PTSUNNY 77 74 90 E3 30.13R JESUP PTSUNNY 79 73 83 CALM 30.13R BAXLEY PTSUNNY 77 77 100 CALM 30.13R BRUNSWICK PTSUNNY 75 72 88 CALM 30.13R SAINT SIMONS CLOUDY 78 76 93 CALM 30.11R $$ SCZ027-028-034-036>038-045-046-048>050-GAZ119-141-221400- ...LAKE AND SUPPLEMENTAL COASTAL OBSERVATIONS... STATION/POSITION TIME TEMP WIND PRES WAVE SWELL AIR SEA DIR/SP/G HT/PER HT/PER/DIR (UTC) (F) (DEG/KT/KT) (MB) (FT/S) (FT/S/D) WINYAH BAY 1145 77 330/ 1 1019.0 LAKE MURRAY 1220 79 CALM / 3 1018.6 ACE BASIN NERRS 1145 76 CALM 1019.0 FORT PULASKI 1248 78 86 340/ 2/ 3 1020.2R SAPELO ISLAND 1200 77 CALM 1019.0 $$ ANZ835-935-AMZ111-154-330-350-352-354-370-450-454-472-221400- ...C-MAN AND BUOY OBSERVATIONS... STATION/POSITION TIME TEMP WIND PRES WAVE SWELL AIR SEA DIR/SP/G HT/PER HT/PER/DIR (UTC) (F) (DEG/KT/KT) (MB) (FT/S) (FT/S/D) BUOY 41004 1250 83 84 230/ 4/ 6 1019.1R 4/ 8 3/140/ 8 BUOY 41008 1250 79 84 180/ 8/ 8 1019.5R 3/ 8 3/100/ 8 FOLLY BEACH CMAN 1200 80 350/ 4/ 5 1019.7R CAPERS NEARSHORE 1208 84 86 220/ 8/ 12 1018.9R FRIPP NEARSHORE 1208 81 270/ 4/ 6 1018.7R STATION/POSITION TIME TEMP WIND PRES WAVE SWELL AIR SEA DIR/SP/G HT/PER HT/PER/DIR (UTC) (F) (DEG/KT/KT) (MB) (FT/S) (FT/S/D) 5E ST. MARYS GA 1230 84 N/A 3/ 9 FRYING PAN BUOY 1250 83 84 210/ 6/ 8 1019.3R 2/10 2/130/10 BUOY 41025 1250 82 87 260/ 2/ 4 1019.8F 2/11 2/140/11 CAPE LOOKOUT NC 1200 82 150/ 2/ 3 1019.4F BUOY 41002 1250 82 83 110/ 4/ 6 1020.1F 5/10 5/100/10 BUOY 41010 1250 84 85 90/ 14/ 17 1018.3R 6/11 5/110/11 ST AUGUSTINE FL 1300 83 81 110/ 7/ 8 1019.6R $$

USA.gov is the U.S. government's official web portal to all federal, state and local government web resources and services.